TimeEDT,TemperatureF,Dew PointF,Humidity,Sea Level PressureIn,VisibilityMPH,Wind Direction,Wind SpeedMPH,Gust SpeedMPH,PrecipitationIn,Events,Conditions,WindDirDegrees,DateUTC
1:53 AM,50.0,37.9,63,30.22,10.0,South,4.6,-,N/A,,Clear,190,2012-10-14 05:53:00
2:53 AM,48.9,39.0,69,30.19,10.0,SSE,3.5,-,N/A,,Clear,150,2012-10-14 06:53:00
3:53 AM,52.0,37.9,59,30.18,10.0,Variable,4.6,-,N/A,,Overcast,0,2012-10-14 07:53:00
4:53 AM,52.0,39.0,61,30.16,10.0,Variable,3.5,-,N/A,,Overcast,0,2012-10-14 08:53:00
5:53 AM,52.0,42.1,69,30.16,10.0,South,4.6,-,0.00,Rain,Light Rain,190,2012-10-14 09:53:00
6:53 AM,50.0,44.1,80,30.14,10.0,SSE,3.5,-,0.00,,Overcast,160,2012-10-14 10:53:00
7:53 AM,51.1,45.0,80,30.15,10.0,Calm,Calm,-,N/A,,Overcast,0,2012-10-14 11:53:00
8:53 AM,52.0,46.9,83,30.14,10.0,Calm,Calm,-,0.01,Rain,Light Rain,0,2012-10-14 12:53:00
9:53 AM,55.0,48.9,80,30.14,10.0,Calm,Calm,-,0.00,,Overcast,0,2012-10-14 13:53:00
10:53 AM,57.0,46.9,69,30.13,10.0,Variable,4.6,-,N/A,,Overcast,0,2012-10-14 14:53:00
11:53 AM,61.0,48.9,64,30.11,10.0,SSW,6.9,-,N/A,,Mostly Cloudy,200,2012-10-14 15:53:00
12:53 PM,63.0,48.0,58,30.07,10.0,Variable,4.6,-,N/A,,Scattered Clouds,0,2012-10-14 16:53:00
1:53 PM,66.9,50.0,54,30.04,10.0,Variable,6.9,-,N/A,,Clear,0,2012-10-14 17:53:00
2:53 PM,68.0,50.0,52,30.01,10.0,Variable,6.9,-,N/A,,Clear,0,2012-10-14 18:53:00
3:53 PM,68.0,48.9,50,30.00,10.0,SW,9.2,-,N/A,,Clear,230,2012-10-14 19:53:00
4:53 PM,69.1,50.0,51,29.98,10.0,SSE,6.9,-,N/A,,Clear,160,2012-10-14 20:53:00
5:53 PM,66.9,51.1,57,29.98,10.0,South,4.6,-,N/A,,Clear,170,2012-10-14 21:53:00
6:53 PM,64.9,52.0,63,29.96,10.0,SSE,4.6,-,N/A,,Clear,160,2012-10-14 22:53:00
7:53 PM,60.1,51.1,72,29.96,10.0,SE,5.8,-,N/A,,Clear,130,2012-10-14 23:53:00
8:53 PM,59.0,50.0,72,29.95,10.0,SSE,4.6,-,N/A,,Clear,150,2012-10-15 00:53:00
9:53 PM,63.0,48.9,60,29.94,10.0,SSE,4.6,-,N/A,,Clear,150,2012-10-15 01:53:00
10:53 PM,61.0,48.9,64,29.93,10.0,SSE,4.6,-,N/A,,Clear,150,2012-10-15 02:53:00
11:53 PM,61.0,50.0,67,29.91,10.0,SSE,6.9,-,N/A,,Clear,150,2012-10-15 03:53:00